Jieyang Chaoshan International Airport

Airport
ICAO code: 
ZGOW
IATA Code: 
SWA
Summary
ICAO Region: 
APAC
Territory: 
Location: 
Jiedong County, Jieyang, Guangdong
Serving: 
Jieyang, Shantou, Chaozhou
Coordinates: 
Aerial View: 
23° 33' 9" N, 116° 30' 20.999" E
Metar
Observation
ZGOW 190200Z 01003MPS 330V050 9999 SCT023 BKN043 18/11 Q1021 NOSIG
Station
Shantou
Date/Time
2022-01-19 02:00:00
Wind direction
10°
Lowest cloud amount
scattered clouds
Temperature
18°C
Dew point
11°C
Humidity
63%
QNH
1021 hPa
Weather condition
n/a

Description

Jieyang Chaoshan International Airport is an airport serving the cities of Jieyang, Shantou, Chaozhou and nearby areas in eastern Guangdong Province, China. It is located in the towns of Paotai and Denggang in Jiedong County, Jieyang, Guangdong.

Climatology

Within the Köppen Climate Classification System, ((Koppen climate classification Cwa)) this climate type generally has warm and humid summers with mild winters. Its extent is from 30 to 50° of latitude mainly on the eastern and western borders of most continents. During the winter, the main weather feature is the mid-latitude cyclone. Convective thunderstorms provide precipitation in the summer months.

Airport map: 
Aerial View: 

SKYbrary Partners:

Safety knowledge contributed by: